Date String (YYYY-MM-DD hh:mm:ss) UTC,Instrument flags,absolute air pressure of the measurement (hPa),sample flow rate (lpm),inlet stack bypass flow (lpm),air temperature of the measurement (°C),ambient temperature measured by the external sensor (°C),aerosol sample conditioner tube jacket temperature (°C),OPC LED temperature (°C),internal box temperature (°C),relative humidity of the measurement (%),span deviation,mass concentration of particles derived from Lorenz-Mie calculation of OPC scattering (μg/m³),mass concentration of particles derived from Lorenz-Mie calculation of OPC scattering (μg/m³),mass concentration of particles derived from Lorenz-Mie calculation of OPC scattering (μg/m³)
DateTimeUTC,F1_M11,P_M11,Q1_M11,Q2_M11,T1_M11,T2_M11,T3_M11,T4_M11,T5_M11,U1_M11,ZSPAN_M11,X0_M11,X2_M11,X1_M11
2024-01-08 06:00:00,SystemResetWarning,0816.9,5.01,000.00,019.2,018.6,000.0,027.6,020.6,12.5,0000.0,0004.31,0002.18,0001.67
2024-01-08 06:01:00,SystemResetWarning,0816.9,5.01,000.00,019.2,018.6,000.0,027.6,020.5,12.5,0000.0,0004.57,0002.23,0001.66
2024-01-08 06:02:00,SystemResetWarning,0816.8,5.00,000.00,019.2,018.6,000.0,027.6,020.5,12.5,0000.0,0004.58,0002.20,0001.67
2024-01-08 06:03:00,SystemResetWarning,0816.9,4.99,000.00,019.2,018.6,000.0,027.6,020.6,12.5,0000.0,0004.46,0002.17,0001.67
2024-01-08 06:04:00,SystemResetWarning,0816.9,5.00,000.00,019.2,018.6,000.0,027.6,020.6,12.5,0000.0,0003.77,0002.16,0001.67
2024-01-08 06:05:00,SystemResetWarning,0816.9,4.99,000.00,019.2,018.6,000.0,027.6,020.5,12.5,0000.0,0003.60,0002.20,0001.68
2024-01-08 06:06:00,SystemResetWarning,0816.9,5.02,000.00,019.2,018.6,000.0,027.6,020.5,12.6,0000.0,0003.55,0002.19,0001.69
2024-01-08 06:07:00,SystemResetWarning,0816.8,5.00,000.00,019.2,018.5,000.0,027.6,020.5,12.6,0000.0,0003.62,0002.21,0001.70
2024-01-08 06:08:00,SystemResetWarning,0816.9,4.99,000.00,019.2,018.6,000.0,027.6,020.5,12.6,0000.0,0003.67,0002.23,0001.70
2024-01-08 06:09:00,SystemResetWarning,0816.9,4.99,000.00,019.2,018.6,000.0,027.6,020.5,12.6,0000.0,0004.04,0002.33,0001.71
2024-01-08 06:10:00,SystemResetWarning,0816.9,4.99,000.00,019.3,018.6,000.0,027.6,020.5,12.6,0000.0,0004.04,0002.34,0001.70
2024-01-08 06:11:00,SystemResetWarning,0816.9,5.00,000.00,019.3,018.6,000.0,027.6,020.5,12.6,0000.0,0004.07,0002.36,0001.71
2024-01-08 06:12:00,SystemResetWarning,0816.9,5.00,000.00,019.3,018.6,000.0,027.6,020.6,12.6,0000.0,0003.98,0002.36,0001.72
2024-01-08 06:13:00,SystemResetWarning,0816.9,5.01,000.00,019.3,018.6,000.0,027.6,020.6,12.6,0000.0,0003.96,0002.37,0001.72
2024-01-08 06:14:00,SystemResetWarning,0816.9,5.01,000.00,019.2,018.6,000.0,027.6,020.6,12.6,0000.0,0003.94,0002.36,0001.71
2024-01-08 06:15:00,SystemResetWarning,0816.9,5.00,000.00,019.2,018.6,000.0,027.6,020.6,12.7,0000.0,0003.93,0002.37,0001.71
2024-01-08 06:16:00,SystemResetWarning,0816.9,5.01,000.00,019.2,018.6,000.0,027.6,020.6,12.7,0000.0,0004.19,0002.32,0001.72
2024-01-08 06:17:00,SystemResetWarning,0816.9,5.00,000.00,019.2,018.6,000.0,027.6,020.5,12.7,0000.0,0004.59,0002.33,0001.72
2024-01-08 06:18:00,SystemResetWarning,0816.9,5.00,000.00,019.2,018.6,000.0,027.6,020.6,12.7,0000.0,0004.53,0002.31,0001.73
2024-01-08 06:19:00,SystemResetWarning,0816.9,4.99,000.00,019.3,018.6,000.0,027.6,020.5,12.7,0000.0,0005.10,0002.35,0001.75
2024-01-08 06:20:00,SystemResetWarning,0816.9,5.00,000.00,019.3,018.6,000.0,027.6,020.6,12.7,0000.0,0004.80,0002.29,0001.75
2024-01-08 06:21:00,SystemResetWarning,0816.9,5.00,000.00,019.2,018.6,000.0,027.6,020.5,12.7,0000.0,0004.59,0002.22,0001.75
2024-01-08 06:22:00,SystemResetWarning,0816.9,5.00,000.00,019.3,018.6,000.0,027.6,020.6,12.7,0000.0,0004.54,0002.20,0001.75
2024-01-08 06:23:00,SystemResetWarning,0816.9,5.00,000.00,019.2,018.6,000.0,027.6,020.6,12.7,0000.0,0004.47,0002.17,0001.75
2024-01-08 06:24:00,SystemResetWarning,0816.9,5.00,000.00,019.2,018.6,000.0,027.6,020.6,12.7,0000.0,0004.66,0002.14,0001.75
2024-01-08 06:25:00,SystemResetWarning,0816.9,5.00,000.00,019.2,018.5,000.0,027.6,020.6,12.7,0000.0,0004.87,0002.18,0001.76
2024-01-08 06:26:00,SystemResetWarning,0817.0,5.00,000.00,019.2,018.6,000.0,027.6,020.5,12.7,0000.0,0004.88,0002.19,0001.78
2024-01-08 06:27:00,SystemResetWarning,0816.9,5.00,000.00,019.2,018.6,000.0,027.6,020.6,12.7,0000.0,0004.71,0002.22,0001.78
2024-01-08 06:28:00,SystemResetWarning,0817.0,5.00,000.00,019.2,018.6,000.0,027.6,020.5,12.7,0000.0,0004.26,0002.23,0001.78
2024-01-08 06:29:00,SystemResetWarning,0816.9,5.00,000.00,019.3,018.6,000.0,027.6,020.6,12.7,0000.0,0004.28,0002.21,0001.78
2024-01-08 06:30:00,SystemResetWarning,0816.9,5.00,000.00,019.3,018.6,000.0,027.6,020.6,12.7,0000.0,0004.57,0002.22,0001.79
2024-01-08 06:31:00,SystemResetWarning,0817.0,5.00,000.00,019.3,018.6,000.0,027.6,020.5,12.7,0000.0,0004.89,0002.27,0001.79
2024-01-08 06:32:00,SystemResetWarning,0816.9,5.00,000.00,019.3,018.6,000.0,027.6,020.5,12.7,0000.0,0005.05,0002.32,0001.81
2024-01-08 06:33:00,SystemResetWarning,0816.9,5.00,000.00,019.2,018.6,000.0,027.6,020.5,12.7,0000.0,0005.06,0002.33,0001.81
2024-01-08 06:34:00,SystemResetWarning,0817.0,5.00,000.00,019.2,018.6,000.0,027.6,020.5,12.7,0000.0,0005.49,0002.38,0001.81
2024-01-08 06:35:00,SystemResetWarning,0816.9,5.00,000.00,019.2,018.6,000.0,027.6,020.5,12.7,0000.0,0005.52,0002.42,0001.82
2024-01-08 06:36:00,SystemResetWarning,0817.0,5.00,000.00,019.3,018.6,000.0,027.6,020.6,12.7,0000.0,0005.56,0002.37,0001.82
2024-01-08 06:37:00,SystemResetWarning,0817.0,4.99,000.00,019.2,018.6,000.0,027.6,020.6,12.7,0000.0,0005.79,0002.39,0001.82
2024-01-08 06:38:00,SystemResetWarning,0817.1,4.99,000.00,019.2,018.6,000.0,027.6,020.6,12.7,0000.0,0005.86,0002.41,0001.82
2024-01-08 06:39:00,SystemResetWarning,0817.1,4.99,000.00,019.2,018.6,000.0,027.6,020.5,12.7,0000.0,0005.93,0002.37,0001.83
2024-01-08 06:40:00,SystemResetWarning,0817.1,5.01,000.00,019.3,018.6,000.0,027.6,020.5,12.7,0000.0,0006.88,0002.38,0001.83
2024-01-08 06:41:00,SystemResetWarning,0817.0,5.00,000.00,019.2,018.6,000.0,027.6,020.5,12.7,0000.0,0006.09,0002.35,0001.82
2024-01-08 06:42:00,SystemResetWarning,0817.1,4.99,000.00,019.2,018.6,000.0,027.6,020.5,12.7,0000.0,0005.65,0002.31,0001.82
2024-01-08 06:43:00,SystemResetWarning,0817.1,4.99,000.00,019.2,018.6,000.0,027.6,020.4,12.7,0000.0,0005.58,0002.28,0001.82
2024-01-08 06:44:00,SystemResetWarning,0817.1,4.99,000.00,019.2,018.5,000.0,027.6,020.4,12.7,0000.0,0006.98,0002.33,0001.83
2024-01-08 06:45:00,SystemResetWarning,0817.1,5.00,000.00,019.2,018.5,000.0,027.6,020.5,12.7,0000.0,0007.15,0002.32,0001.84
2024-01-08 06:46:00,SystemResetWarning,0817.1,5.01,000.00,019.2,018.5,000.0,027.6,020.4,12.7,0000.0,0006.60,0002.32,0001.85
2024-01-08 06:47:00,SystemResetWarning,0817.1,5.00,000.00,019.2,018.5,000.0,027.6,020.4,12.7,0000.0,0006.62,0002.37,0001.85
2024-01-08 06:48:00,SystemResetWarning,0817.0,5.00,000.00,019.2,018.5,000.0,027.6,020.4,12.8,0000.0,0006.48,0002.43,0001.86
2024-01-08 06:49:00,SystemResetWarning,0817.1,5.01,000.00,019.2,018.5,000.0,027.6,020.3,12.8,0000.0,0006.44,0002.39,0001.85
2024-01-08 06:50:00,SystemResetWarning,0817.1,5.00,000.00,019.2,018.5,000.0,027.6,020.3,12.8,0000.0,0006.53,0002.41,0001.83
2024-01-08 06:51:00,SystemResetWarning,0817.1,5.00,000.00,019.2,018.5,000.0,027.5,020.3,12.8,0000.0,0005.42,0002.41,0001.82
2024-01-08 06:52:00,SystemResetWarning,0817.1,5.00,000.00,019.1,018.4,000.0,027.5,020.3,12.9,0000.0,0005.88,0002.46,0001.82
2024-01-08 06:53:00,SystemResetWarning,0817.1,4.99,000.00,019.1,018.4,000.0,027.5,020.2,12.9,0000.0,0006.13,0002.49,0001.82
2024-01-08 06:54:00,SystemResetWarning,0817.1,4.99,000.00,019.1,018.4,000.0,027.5,020.3,12.9,0000.0,0006.17,0002.50,0001.82
2024-01-08 06:55:00,SystemResetWarning,0817.1,5.00,000.00,019.1,018.4,000.0,027.5,020.3,12.9,0000.0,0004.73,0002.42,0001.82
2024-01-08 06:56:00,SystemResetWarning,0817.1,5.01,000.00,019.1,018.4,000.0,027.5,020.3,13.0,0000.0,0004.45,0002.44,0001.82
2024-01-08 06:57:00,SystemResetWarning,0817.1,5.00,000.00,019.1,018.4,000.0,027.5,020.2,13.0,0000.0,0004.46,0002.45,0001.82
2024-01-08 06:58:00,SystemResetWarning,0817.1,5.00,000.00,019.1,018.3,000.0,027.5,020.3,13.0,0000.0,0004.43,0002.41,0001.82
2024-01-08 06:59:00,SystemResetWarning,0817.1,4.99,000.00,019.1,018.3,000.0,027.5,020.3,13.0,0000.0,0004.16,0002.36,0001.83
